1484262000.91,59657,5.56,72018.0,-9.53,-16.93,-15.15,0,*5A
1484262002.17,59658,5.56,72016.3,-9.53,-16.83,-15.01,0,*51
1484262003.46,59659,5.56,72008.0,-9.53,-16.65,-14.83,0,*53
1484262004.71,59660,5.56,72002.3,-9.53,-16.37,-14.75,0,*57
1484262005.99,59661,5.56,72020.0,-9.53,-16.23,-14.55,0,*51
1484262007.27,59662,5.56,72000.0,-9.53,-16.23,-14.55,0,*52
1484262008.56,59663,5.56,71994.0,-9.53,-16.09,-14.55,0,*5B
1484262009.85,59664,5.56,72008.8,-9.53,-15.89,-14.47,0,*54
1484262011.13,59665,5.56,72010.3,-9.53,-15.85,-14.47,0,*59
1484262012.39,59666,5.56,72016.3,-9.53,-15.75,-14.47,0,*55
1484262013.64,59667,5.56,72028.8,-9.53,-15.63,-14.43,0,*57
1484262014.87,59668,5.56,72028.8,-9.53,-15.63,-14.29,0,*54
1484262016.13,59669,5.56,72014.5,-9.53,-15.57,-14.15,0,*5D
1484262017.41,59670,5.56,72014.3,-9.53,-15.43,-14.01,0,*55
1484262018.69,59671,5.56,72008.0,-9.53,-15.35,-14.01,0,*55
1484262019.97,59672,5.56,72002.0,-9.53,-15.35,-13.87,0,*5F
1484262021.24,59673,5.56,72000.3,-9.53,-15.21,-13.87,0,*5B
1484262022.49,59674,5.56,72002.3,-9.53,-15.15,-13.83,0,*5F
1484262023.7,59675,5.56,72012.5,-9.51,-15.01,-13.73,0,*56
1484262024.95,59676,5.56,72018.3,-9.51,-14.93,-13.61,0,*5C
1484262026.15,59677,5.56,72008.5,-9.51,-14.89,-13.55,0,*51
1484262027.36,59678,5.56,71996.8,-9.51,-14.75,-13.47,0,*5E
1484262028.62,59679,5.56,71992.5,-9.53,-14.61,-13.33,0,*5B
1484262029.85,59680,5.56,71992.3,-9.53,-14.61,-13.19,0,*55
1484262031.1,59681,5.56,72000.5,-9.51,-14.43,-13.29,0,*55
1484262032.38,59682,5.56,72008.0,-9.53,-14.43,-13.29,0,*54
1484262033.64,59683,5.56,72010.0,-9.53,-14.33,-13.33,0,*59
1484262034.89,59684,5.56,72006.5,-9.53,-14.33,-13.29,0,*55
1484262036.16,59685,5.56,72008.5,-9.53,-14.19,-13.33,0,*57
1484262037.42,59686,5.56,71996.5,-9.53,-14.19,-13.29,0,*5F
1484262038.69,59687,5.56,71998.5,-9.53,-14.05,-13.19,0,*50
1484262039.97,59688,5.56,71984.8,-9.53,-13.87,-13.29,0,*51
1484262041.25,59689,5.56,72000.0,-9.53,-14.01,-13.33,0,*52
1484262042.5,59690,5.56,72000.3,-9.53,-13.87,-13.43,0,*54
1484262043.74,59691,5.56,72018.0,-9.55,-14.01,-13.51,0,*59
1484262044.97,59692,5.56,72016.5,-9.51,-14.01,-13.55,0,*5A
1484262046.21,59693,5.56,72020.5,-9.53,-14.15,-13.69,0,*53
1484262047.44,59694,5.56,72020.5,-9.51,-14.15,-13.83,0,*52
1484262048.69,59695,5.56,72012.8,-9.53,-14.29,-13.83,0,*5E
1484262049.94,59696,5.56,72014.5,-9.53,-14.29,-13.83,0,*5D
1484262051.19,59697,5.56,72020.0,-9.53,-14.33,-13.83,0,*57
1484262052.47,59698,5.56,72022.0,-9.53,-14.43,-13.87,0,*5B
1484262053.76,59699,5.56,72026.5,-9.53,-14.47,-13.87,0,*5E
1484262055.04,59700,5.56,72022.8,-9.53,-14.55,-13.87,0,*5C
1484262056.32,59701,5.56,72024.0,-9.53,-14.55,-13.97,0,*5C
1484262057.57,59702,5.56,72022.0,-9.53,-14.69,-13.87,0,*51
1484262058.85,59703,5.56,72026.8,-9.53,-14.83,-13.97,0,*55
1484262060.08,59704,5.56,72032.3,-9.53,-15.07,-14.15,0,*52
1484262061.31,59705,5.56,72034.3,-9.53,-15.15,-14.15,0,*50
1484262062.58,59706,5.56,72036.8,-9.53,-15.29,-14.01,0,*59
1484262063.83,59707,5.56,72034.5,-9.55,-15.39,-14.01,0,*5F
1484262065.06,59708,5.56,72034.8,-9.55,-15.53,-14.01,0,*5C
1484262066.26,59709,5.56,72028.0,-9.55,-15.53,-13.93,0,*51
1484262067.51,59710,5.56,72026.5,-9.53,-15.49,-13.83,0,*55
1484262068.76,59711,5.56,72028.0,-9.53,-15.57,-13.69,0,*5F
1484262070.01,59712,5.56,72032.0,-9.53,-15.63,-13.61,0,*53
1484262071.21,59713,5.56,72038.5,-9.55,-15.53,-13.47,0,*53
1484262072.46,59714,5.56,72038.3,-9.57,-15.49,-13.37,0,*5A
1484262073.67,59715,5.56,72024.0,-9.55,-15.53,-13.23,0,*57
1484262074.86,59716,5.56,72036.5,-9.55,-15.49,-13.07,0,*59
1484262076.12,59717,5.56,72032.8,-9.57,-15.39,-12.93,0,*51
1484262077.35,59718,5.56,72030.3,-9.55,-15.35,-12.93,0,*50
1484262078.58,59719,5.56,72034.5,-9.55,-15.25,-12.79,0,*54
1484262079.83,59720,5.56,72034.5,-9.57,-15.11,-12.79,0,*5B
1484262081.08,59721,5.56,72036.0,-9.55,-14.97,-12.65,0,*5A
1484262082.32,59722,5.56,72038.5,-9.55,-14.93,-12.65,0,*5D
1484262083.6,59723,5.56,72042.5,-9.57,-14.75,-12.53,0,*53
1484262084.85,59724,5.56,72056.0,-9.57,-14.65,-12.53,0,*55
1484262086.06,59725,5.56,72042.3,-9.55,-14.33,-12.21,0,*50
1484262087.27,59726,5.56,72018.5,-9.55,-14.11,-12.03,0,*53
1484262088.52,59727,5.56,72020.8,-9.55,-13.87,-11.77,0,*5A
1484262089.76,59728,5.56,72034.0,-9.55,-13.73,-11.63,0,*5B
1484262091.01,59729,5.56,72032.5,-9.53,-13.73,-11.59,0,*55
1484262092.27,59730,5.56,72038.3,-9.53,-13.43,-11.37,0,*56
1484262093.49,59731,5.56,72042.0,-9.51,-13.73,-11.85,0,*5F
1484262094.72,59732,5.56,72050.5,-9.51,-13.69,-11.89,0,*5B
1484262095.97,59733,5.56,72042.8,-9.51,-13.61,-11.73,0,*57
1484262097.2,59734,5.56,72028.0,-9.51,-13.55,-11.63,0,*56
1484262098.43,59735,5.56,72028.0,-9.51,-13.47,-11.85,0,*5C
1484262099.68,59736,5.56,72034.8,-9.51,-13.33,-11.73,0,*55
1484262100.9,59737,5.56,72042.3,-9.51,-13.15,-11.63,0,*51
1484262102.13,59738,5.56,72038.8,-9.51,-13.19,-11.73,0,*53
1484262103.39,59739,5.56,72034.0,-9.53,-13.11,-11.63,0,*59
1484262104.64,59740,5.56,72026.8,-9.51,-12.75,-11.33,0,*53
1484262105.89,59741,5.56,72040.5,-9.51,-12.75,-11.37,0,*56
1484262107.14,59742,5.56,72040.5,-9.51,-12.83,-11.51,0,*5C
1484262108.38,59743,5.56,72048.0,-9.51,-12.83,-11.51,0,*5D
1484262109.63,59744,5.56,72050.8,-9.51,-12.71,-11.51,0,*57
1484262110.85,59745,5.56,72048.5,-9.51,-12.61,-11.45,0,*52
1484262112.08,59746,5.56,72052.8,-9.51,-12.47,-11.37,0,*50
1484262113.3,59747,5.56,72048.5,-9.51,-12.57,-11.45,0,*55
1484262114.53,59748,5.56,72050.0,-9.51,-12.47,-11.59,0,*56
1484262115.75,59749,5.56,72046.8,-9.51,-12.47,-11.51,0,*5F
1484262116.95,59750,5.56,72050.3,-9.51,-12.43,-11.45,0,*56
1484262118.21,59751,5.56,72046.3,-9.49,-12.35,-11.41,0,*5B
1484262119.44,59752,5.56,72042.5,-9.49,-12.29,-11.45,0,*51
1484262120.69,59753,5.56,72042.8,-9.49,-12.29,-11.33,0,*51
1484262121.94,59754,5.56,72044.8,-9.49,-12.29,-11.33,0,*56
1484262123.19,59755,5.56,72036.5,-9.49,-12.39,-11.59,0,*5A
1484262124.46,59756,5.56,72036.5,-9.45,-12.43,-11.67,0,*55
1484262125.71,59757,5.56,72016.3,-9.49,-12.39,-11.59,0,*58
1484262126.96,59758,5.56,72014.3,-9.49,-12.11,-11.45,0,*50
1484262128.22,59759,5.56,72028.0,-9.49,-12.29,-11.59,0,*57
1484262129.49,59760,5.56,72032.5,-9.49,-12.53,-11.73,0,*58
1484262130.78,59761,5.56,72032.3,-9.49,-12.53,-11.97,0,*53
1484262132.07,59762,5.56,72034.5,-9.45,-12.71,-12.11,0,*51
1484262133.36,59763,5.56,72038.5,-9.45,-12.79,-12.15,0,*5C
1484262134.61,59764,5.56,72042.8,-9.49,-12.93,-12.53,0,*51
1484262135.89,59765,5.56,72040.5,-9.49,-12.71,-12.11,0,*5A
1484262137.17,59766,5.56,72036.3,-9.49,-12.79,-12.11,0,*51
1484262138.42,59767,5.56,72032.8,-9.49,-12.83,-12.29,0,*5E
1484262139.65,59768,5.56,72034.0,-9.49,-12.93,-12.39,0,*51
1484262140.91,59769,5.56,72032.5,-9.49,-12.83,-12.29,0,*50
1484262142.15,59770,5.56,72018.5,-9.45,-12.97,-12.39,0,*50
1484262143.39,59771,5.56,72014.0,-9.49,-13.15,-12.65,0,*5F
1484262144.64,59772,5.56,72010.5,-9.45,-13.43,-12.93,0,*5A
1484262145.86,59773,5.56,72008.0,-9.49,-13.65,-13.15,0,*5C
1484262147.09,59774,5.56,72010.5,-9.49,-13.69,-13.23,0,*52
1484262148.35,59775,5.56,72010.8,-9.49,-13.97,-13.51,0,*57
1484262149.62,59776,5.56,72014.5,-9.45,-13.97,-13.65,0,*5F
1484262150.89,59777,5.56,72018.8,-9.45,-14.37,-14.01,0,*56
1484262152.16,59778,5.56,72016.3,-9.45,-14.55,-14.29,0,*57
1484262153.42,59779,5.56,72026.8,-9.45,-14.89,-14.51,0,*58
1484262154.66,59780,5.56,72028.8,-9.45,-15.15,-14.69,0,*51
1484262155.93,59781,5.56,72028.8,-9.45,-15.29,-14.83,0,*5B
1484262157.22,59782,5.56,72030.8,-9.45,-15.43,-15.01,0,*5F
1484262158.51,59783,5.56,72032.5,-9.45,-15.43,-15.01,0,*5E
1484262159.76,59784,5.56,72036.8,-9.49,-15.53,-15.01,0,*54
1484262161.0,59785,5.56,72040.3,-9.49,-15.53,-15.29,0,*5F
1484262162.24,59786,5.56,72040.0,-9.45,-15.71,-15.71,0,*5D
1484262163.46,59787,5.56,72044.0,-9.49,-15.99,-16.03,0,*50
1484262164.69,59788,5.56,72042.0,-9.49,-16.45,-16.45,0,*5F
1484262165.94,59789,5.56,72044.0,-9.49,-16.69,-16.79,0,*5F
1484262167.22,59790,5.56,72040.3,-9.49,-17.03,-17.21,0,*56
1484262168.5,59791,5.56,72034.8,-9.49,-17.17,-17.45,0,*50
1484262169.78,59792,5.56,72038.3,-9.49,-17.59,-17.97,0,*56
1484262171.04,59793,5.56,72034.8,-9.49,-18.07,-18.35,0,*54
1484262172.27,59794,5.56,72032.5,-9.49,-18.49,-18.73,0,*5B
1484262173.53,59795,5.56,72038.8,-9.45,-18.55,-18.69,0,*50
1484262174.76,59796,5.56,72044.0,-9.49,-18.83,-18.99,0,*5B
1484262176.04,59797,5.56,72036.5,-9.49,-19.31,-19.31,0,*51
1484262177.33,59798,5.56,72042.0,-9.45,-19.81,-19.57,0,*59
1484262178.57,59799,5.56,72038.8,-9.49,-20.09,-19.65,0,*5F
1484262179.83,59800,5.56,72038.0,-9.45,-20.35,-19.91,0,*58
1484262181.08,59801,5.56,72038.8,-9.49,-20.73,-20.19,0,*5D
1484262182.37,59802,5.56,72042.3,-9.49,-20.99,-20.19,0,*5A
1484262183.64,59803,5.56,72032.8,-9.49,-21.27,-20.35,0,*51
1484262184.92,59804,5.56,72036.3,-9.45,-21.47,-20.49,0,*57
1484262186.2,59805,5.56,72030.8,-9.49,-21.67,-20.49,0,*58
1484262187.44,59806,5.56,72028.0,-9.49,-21.93,-20.63,0,*58
1484262188.67,59807,5.56,72034.5,-9.49,-21.93,-20.63,0,*59
1484262189.94,59808,5.56,72028.0,-9.49,-22.21,-20.89,0,*58
1484262191.19,59809,5.56,72030.0,-9.49,-22.27,-20.99,0,*5E
1484262192.45,59810,5.56,72030.8,-9.49,-22.27,-20.99,0,*56
1484262193.68,59811,5.56,72034.0,-9.45,-22.41,-21.13,0,*58
1484262194.94,59812,5.56,72032.5,-9.49,-22.67,-21.27,0,*54
1484262196.2,59813,5.56,72034.5,-9.49,-22.67,-21.27,0,*55
1484262197.45,59814,5.56,72030.3,-9.49,-22.67,-21.27,0,*52
1484262198.71,59815,5.56,72030.3,-9.49,-23.03,-21.47,0,*56
1484262199.96,59816,5.56,72028.3,-9.51,-23.23,-21.53,0,*5B
1484262201.19,59817,5.56,72030.3,-9.53,-23.13,-21.39,0,*57
1484262202.43,59818,5.56,72032.8,-9.51,-23.09,-21.23,0,*5A
1484262203.63,59819,5.56,72032.0,-9.51,-22.93,-21.17,0,*5E
1484262204.87,59820,5.56,72032.3,-9.53,-22.93,-21.17,0,*56
1484262206.16,59821,5.56,72032.0,-9.53,-22.77,-21.03,0,*58
1484262207.44,59822,5.56,72030.8,-9.53,-22.77,-21.03,0,*5B
1484262208.7,59823,5.56,72024.5,-9.53,-22.73,-20.93,0,*56
1484262209.94,59824,5.56,72014.8,-9.53,-22.63,-20.89,0,*5B
1484262211.18,59825,5.56,72016.0,-9.53,-22.63,-20.89,0,*5A
1484262212.41,59826,5.56,72024.3,-9.53,-22.57,-20.93,0,*55
1484262213.69,59827,5.56,72016.5,-9.53,-22.47,-20.89,0,*5E
1484262214.92,59828,5.56,72004.0,-9.55,-22.37,-20.99,0,*51
1484262216.12,59829,5.56,72008.5,-9.55,-22.07,-20.63,0,*56
1484262217.33,59830,5.56,72016.5,-9.55,-21.93,-20.59,0,*59
1484262218.57,59831,5.56,72014.0,-9.57,-21.93,-20.63,0,*53
1484262219.81,59832,5.56,72018.8,-9.55,-21.93,-20.49,0,*5A
1484262221.09,59833,5.56,72018.0,-9.57,-21.67,-20.35,0,*59
1484262222.35,59834,5.56,72022.0,-9.57,-21.57,-20.43,0,*5C
1484262223.63,59835,5.56,72018.8,-9.57,-21.53,-20.35,0,*58
1484262224.88,59836,5.56,72020.3,-9.59,-21.57,-20.35,0,*51
1484262226.09,59837,5.56,72030.3,-9.59,-21.47,-20.25,0,*50
1484262227.37,59838,5.56,72030.8,-9.57,-21.23,-20.19,0,*5C
1484262228.58,59839,5.56,72018.5,-9.55,-21.13,-19.91,0,*56
1484262229.81,59840,5.56,72014.5,-9.55,-20.99,-19.71,0,*55
1484262231.06,59841,5.56,72016.5,-9.57,-20.99,-19.51,0,*54
1484262232.29,59842,5.56,72014.8,-9.57,-20.93,-19.37,0,*5D
1484262233.56,59843,5.56,72014.0,-9.57,-20.79,-19.23,0,*5D
1484262234.79,59844,5.56,72014.3,-9.57,-20.59,-18.83,0,*53
1484262236.02,59845,5.56,72014.3,-9.57,-20.43,-18.49,0,*5F
1484262237.27,59846,5.56,72006.8,-9.55,-20.19,-18.35,0,*5A
1484262238.47,59847,5.56,72026.0,-9.59,-20.09,-18.11,0,*50
1484262239.67,59848,5.56,72022.3,-9.59,-20.05,-17.87,0,*53
1484262240.89,59849,5.56,72030.5,-9.61,-20.05,-17.73,0,*52
1484262242.11,59850,5.56,72028.3,-9.59,-19.71,-17.35,0,*5A
1484262243.34,59851,5.56,72024.8,-9.59,-19.61,-17.31,0,*5E
1484262244.6,59852,5.56,72030.5,-9.59,-19.57,-17.17,0,*5C
1484262245.86,59853,5.56,72038.8,-9.61,-19.13,-16.69,0,*5E
1484262247.09,59854,5.56,72040.3,-9.59,-18.89,-16.41,0,*5A
1484262248.35,59855,5.56,72042.8,-9.61,-18.65,-16.17,0,*51
1484262249.58,59856,5.56,72038.0,-9.59,-18.41,-16.13,0,*5B
1484262250.78,59857,5.56,72028.0,-9.59,-18.25,-15.99,0,*59
1484262252.01,59858,5.56,72018.8,-9.59,-18.25,-15.85,0,*5B
1484262253.27,59859,5.56,72014.3,-9.59,-17.97,-15.57,0,*53
1484262254.49,59860,5.56,72002.5,-9.59,-17.35,-14.65,0,*51
1484262255.69,59861,5.56,72014.0,-9.59,-16.75,-14.37,0,*52
1484262256.92,59862,5.56,72026.5,-9.61,-16.41,-14.11,0,*59
1484262258.17,59863,5.56,72026.8,-9.59,-15.85,-13.83,0,*54
1484262259.4,59864,5.56,72024.5,-9.61,-15.53,-13.43,0,*5F
1484262260.65,59865,5.56,72038.3,-9.59,-15.39,-13.37,0,*5A
1484262261.93,59866,5.56,72036.3,-9.61,-15.39,-13.29,0,*5D
1484262263.21,59867,5.56,72030.8,-9.61,-15.39,-13.29,0,*5C
1484262264.46,59868,5.56,72020.0,-9.61,-15.43,-13.43,0,*52
1484262265.68,59869,5.56,72016.8,-9.59,-15.57,-13.55,0,*5A
1484262266.89,59870,5.56,72018.0,-9.59,-15.67,-13.51,0,*55
1484262268.09,59871,5.56,72012.0,-9.59,-15.53,-13.23,0,*56
1484262269.32,59872,5.56,72014.0,-9.61,-15.29,-13.07,0,*55
1484262270.53,59873,5.56,72036.5,-9.59,-15.25,-12.97,0,*5B
1484262271.77,59874,5.56,72032.0,-9.59,-15.01,-12.83,0,*5F
1484262273.03,59875,5.56,72036.3,-9.59,-14.83,-12.83,0,*55
1484262274.26,59876,5.56,72038.3,-9.59,-14.69,-12.71,0,*5F
1484262275.48,59877,5.56,72030.3,-9.59,-14.65,-12.65,0,*57
1484262276.71,59878,5.56,72018.8,-9.59,-14.65,-12.71,0,*5D
1484262277.93,59879,5.56,72020.3,-9.59,-14.65,-12.57,0,*58
1484262279.2,59880,5.56,72030.0,-9.59,-14.51,-12.53,0,*5D
1484262280.4,59881,5.56,72026.8,-9.59,-14.37,-12.43,0,*5D
1484262281.64,59882,5.56,72024.5,-9.61,-14.11,-12.29,0,*5D
1484262282.85,59883,5.56,72040.3,-9.59,-13.93,-12.21,0,*52
1484262284.08,59884,5.56,72040.3,-9.59,-13.79,-12.21,0,*51
1484262285.31,59885,5.56,72040.5,-9.59,-13.79,-12.21,0,*50
1484262286.57,59886,5.56,72038.8,-9.59,-13.79,-12.07,0,*57
1484262287.85,59887,5.56,72042.3,-9.61,-13.79,-12.07,0,*5D
1484262289.1,59888,5.56,72032.3,-9.61,-13.69,-11.97,0,*59
1484262290.33,59889,5.56,72024.8,-9.59,-13.55,-11.81,0,*5B
1484262291.59,59890,5.56,72022.8,-9.61,-13.51,-11.85,0,*58
1484262292.88,59891,5.56,72016.8,-9.61,-13.37,-11.85,0,*59
1484262294.11,59892,5.56,72008.0,-9.59,-13.23,-11.73,0,*5D
1484262295.33,59893,5.56,72010.8,-9.59,-13.07,-11.59,0,*52
1484262296.57,59894,5.56,72016.5,-9.59,-12.97,-11.55,0,*51
1484262297.8,59895,5.56,72036.5,-9.59,-12.97,-11.55,0,*50
1484262299.03,59896,5.56,72042.3,-9.59,-12.79,-11.45,0,*52
1484262300.26,59897,5.56,72038.3,-9.59,-12.57,-11.41,0,*5B
1484262301.49,59898,5.56,72042.0,-9.59,-12.43,-11.29,0,*5F
1484262302.71,59899,5.56,72050.5,-9.59,-12.43,-11.37,0,*51
1484262303.94,59900,5.56,72036.5,-9.59,-12.43,-11.29,0,*5F
1484262305.17,59901,5.56,72026.5,-9.59,-12.29,-11.29,0,*52
1484262306.43,59902,5.56,72036.0,-9.61,-12.29,-11.29,0,*5A
1484262307.64,59903,5.56,72036.3,-9.59,-12.39,-11.41,0,*5F
1484262308.85,59904,5.56,72030.8,-9.59,-12.29,-11.41,0,*59
1484262310.08,59905,5.56,72042.3,-9.59,-12.25,-11.37,0,*55
1484262311.31,59906,5.56,72042.0,-9.59,-12.21,-11.37,0,*52
1484262312.54,59907,5.56,72040.5,-9.59,-12.07,-11.15,0,*57
1484262313.77,59908,5.56,72040.0,-9.59,-12.07,-11.23,0,*5D
1484262315.03,59909,5.56,72024.3,-9.61,-11.81,-10.97,0,*54
1484262316.29,59910,5.56,72036.0,-9.57,-11.67,-10.97,0,*51
1484262317.56,59911,5.56,72016.5,-9.57,-11.37,-10.71,0,*5D
1484262318.82,59912,5.56,72032.3,-9.57,-11.63,-10.97,0,*57
1484262320.08,59913,5.56,72042.0,-9.57,-11.63,-10.93,0,*52
1484262321.34,59914,5.56,72044.0,-9.55,-11.37,-10.67,0,*5D
1484262322.57,59915,5.56,72028.5,-9.57,-10.85,-10.23,0,*56
1484262323.8,59916,5.56,72010.0,-9.55,-10.67,-10.09,0,*53
1484262325.06,59917,5.56,71982.3,-9.53,-10.75,-10.23,0,*5F
1484262326.27,59918,5.56,71982.3,-9.51,-10.93,-10.35,0,*5D
1484262327.48,59919,5.56,71988.8,-9.51,-10.93,-10.35,0,*5C
1484262328.77,59920,5.56,72012.0,-9.53,-11.29,-10.79,0,*5C
1484262330.02,59921,5.56,72024.5,-9.51,-11.73,-11.07,0,*58
1484262331.24,59922,5.56,72028.5,-9.51,-11.73,-11.15,0,*58
1484262332.47,59923,5.56,72028.0,-9.51,-11.63,-11.15,0,*58
1484262333.69,59924,5.56,72032.5,-9.51,-11.59,-11.01,0,*53
1484262334.92,59925,5.56,72034.0,-9.51,-11.51,-11.01,0,*5A
1484262336.18,59926,5.56,72038.0,-9.53,-11.51,-11.01,0,*5B
1484262337.43,59927,5.56,72036.0,-9.51,-11.51,-11.07,0,*5E
1484262338.64,59928,5.56,72024.3,-9.51,-11.45,-11.01,0,*52
1484262339.89,59929,5.56,72022.3,-9.49,-11.55,-10.97,0,*55
1484262341.15,59930,5.56,72038.0,-9.49,-11.59,-11.11,0,*5E
1484262342.4,59931,5.56,72044.0,-9.51,-11.63,-11.07,0,*58
1484262343.66,59932,5.56,72036.8,-9.51,-11.59,-11.07,0,*52
1484262344.89,59933,5.56,72036.8,-9.51,-11.51,-11.01,0,*5D
1484262346.11,59934,5.56,72034.3,-9.51,-11.59,-11.15,0,*57
1484262347.39,59935,5.56,72042.5,-9.53,-11.51,-11.07,0,*5F
1484262348.65,59936,5.56,72038.0,-9.53,-11.59,-11.15,0,*57
1484262349.88,59937,5.56,72034.8,-9.51,-11.59,-11.15,0,*54
1484262351.14,59938,5.56,72038.3,-9.51,-11.59,-11.07,0,*58
1484262352.39,59939,5.56,72038.8,-9.51,-11.51,-11.07,0,*51
1484262353.64,59940,5.56,72034.8,-9.51,-11.59,-11.07,0,*57
1484262354.87,59941,5.56,72030.0,-9.51,-11.59,-11.15,0,*55
1484262356.09,59942,5.56,72020.3,-9.51,-11.51,-11.15,0,*5E
1484262357.38,59943,5.56,72026.5,-9.53,-11.59,-11.07,0,*56
1484262358.63,59944,5.56,72026.5,-9.51,-11.51,-11.07,0,*5B
1484262359.87,59945,5.56,72032.8,-9.51,-11.45,-11.07,0,*5F
1484262361.12,59946,5.56,72026.8,-9.51,-11.51,-11.07,0,*59
1484262362.35,59947,5.56,72030.5,-9.51,-11.33,-10.93,0,*50
1484262363.57,59948,5.56,72032.8,-9.51,-11.37,-11.01,0,*51
1484262364.8,59949,5.56,72034.3,-9.51,-11.33,-11.01,0,*54
1484262366.03,59950,5.56,72030.3,-9.51,-11.33,-10.89,0,*5D
1484262367.25,59951,5.56,72020.8,-9.51,-11.19,-10.79,0,*5B
1484262368.48,59952,5.56,72014.5,-9.51,-11.19,-10.67,0,*57
1484262369.71,59953,5.56,72012.0,-9.51,-11.19,-10.75,0,*55
1484262370.97,59954,5.56,72012.8,-9.45,-11.15,-10.63,0,*5C
1484262372.24,59955,5.56,71984.8,-9.45,-11.11,-10.63,0,*59
1484262373.5,59956,5.56,71980.0,-9.49,-11.01,-10.63,0,*57
1484262374.74,59957,5.56,71990.5,-9.49,-11.01,-10.57,0,*51
1484262375.98,59958,5.56,72016.0,-9.45,-11.11,-10.57,0,*53
1484262377.23,59959,5.56,72014.0,-9.45,-11.01,-10.57,0,*53
1484262378.47,59960,5.56,72018.3,-9.45,-10.89,-10.49,0,*57
1484262379.71,59961,5.56,72000.3,-9.45,-10.85,-10.45,0,*56
1484262380.95,59962,5.56,72004.0,-9.45,-10.89,-10.49,0,*55
1484262382.22,59963,5.56,72020.3,-9.43,-10.79,-10.41,0,*55
1484262383.47,59964,5.56,72028.8,-9.43,-10.71,-10.45,0,*5E
1484262384.71,59965,5.56,72040.0,-9.43,-10.71,-10.45,0,*5F
1484262385.96,59966,5.56,72044.5,-9.43,-10.67,-10.53,0,*5C
1484262387.24,59967,5.56,72032.8,-9.43,-10.71,-10.41,0,*59
1484262388.48,59968,5.56,72026.3,-9.43,-10.57,-10.41,0,*52
1484262389.79,59969,5.56,72036.8,-9.41,-10.67,-10.41,0,*52
1484262391.1,59970,5.56,72038.3,-9.41,-10.67,-10.41,0,*5A
1484262392.4,59971,5.56,72038.3,-9.41,-10.67,-10.41,0,*5B
1484262393.65,59972,5.56,72016.5,-9.41,-10.57,-10.31,0,*5C
1484262394.9,59973,5.56,72034.3,-9.41,-10.45,-10.27,0,*59
1484262396.11,59974,5.56,72036.0,-9.39,-10.49,-10.23,0,*59
1484262397.35,59975,5.56,72036.5,-9.37,-10.49,-10.23,0,*56
1484262398.59,59976,5.56,72026.0,-9.39,-10.41,-10.23,0,*53
1484262399.82,59977,5.56,72030.8,-9.39,-10.35,-10.19,0,*58
1484262401.09,59978,5.56,72040.5,-9.37,-10.41,-10.19,0,*5A
1484262402.36,59979,5.56,72042.8,-9.37,-10.41,-10.23,0,*52
1484262403.62,59980,5.56,72030.8,-9.37,-10.35,-10.19,0,*5E
1484262404.84,59981,5.56,72030.5,-9.35,-10.35,-10.19,0,*5D
1484262406.09,59982,5.56,72020.0,-9.33,-10.31,-10.19,0,*5C
1484262407.31,59983,5.56,72016.0,-9.35,-10.57,-10.45,0,*52
1484262408.53,59984,5.56,72012.8,-9.35,-10.49,-10.35,0,*5D
1484262409.8,59985,5.56,72030.0,-9.33,-10.63,-10.23,0,*55
1484262411.02,59986,5.56,72030.5,-9.35,-10.57,-10.31,0,*54
1484262412.24,59987,5.56,72032.0,-9.35,-10.57,-10.45,0,*56
1484262413.51,59988,5.56,72026.3,-9.33,-10.63,-10.45,0,*58
1484262414.78,59989,5.56,72022.3,-9.33,-10.75,-10.49,0,*52
1484262416.02,59990,5.56,72016.5,-9.33,-10.85,-10.49,0,*55
1484262417.29,59991,5.56,72034.0,-9.33,-10.75,-10.49,0,*5B
1484262418.53,59992,5.56,72034.3,-9.31,-10.79,-10.53,0,*5D
1484262419.75,59993,5.56,72034.0,-9.31,-10.93,-10.57,0,*5C
1484262420.99,59994,5.56,72026.8,-9.31,-10.93,-10.71,0,*5F
1484262422.23,59995,5.56,72018.0,-9.31,-10.93,-10.71,0,*5E
1484262423.48,59996,5.56,71996.0,-9.31,-10.97,-10.79,0,*51
1484262424.76,59997,5.56,71986.3,-9.31,-11.07,-10.79,0,*58
1484262426.0,59998,5.56,71966.0,-9.31,-11.11,-10.79,0,*50
1484262427.21,59999,5.56,71940.8,-9.31,-11.15,-10.85,0,*56
1484262428.48,60000,5.56,71946.3,-9.29,-11.11,-10.79,0,*5B
1484262429.72,60001,5.56,71952.0,-9.31,-11.11,-10.79,0,*53
1484262430.96,60002,5.56,71964.3,-9.29,-11.15,-10.85,0,*5E
1484262432.17,60003,5.56,72004.5,-9.31,-11.15,-10.85,0,*56
1484262433.38,60004,5.56,72026.0,-9.31,-11.11,-10.85,0,*55
1484262434.61,60005,5.56,72018.3,-9.33,-11.15,-10.85,0,*52
1484262435.85,60006,5.56,72024.8,-9.33,-11.19,-10.89,0,*51
1484262437.06,60007,5.56,71998.3,-9.31,-11.23,-10.85,0,*57
1484262438.31,60008,5.56,72008.3,-9.31,-11.29,-10.93,0,*55
1484262439.56,60009,5.56,72008.8,-9.31,-11.29,-10.93,0,*54
1484262440.81,60010,5.56,72026.0,-9.31,-11.29,-10.93,0,*5C
1484262442.05,60011,5.56,72020.3,-9.31,-11.29,-10.93,0,*5D
1484262443.29,60012,5.56,72008.5,-9.31,-11.37,-10.93,0,*51
1484262444.54,60013,5.56,72012.3,-9.33,-11.45,-11.11,0,*5C
1484262445.78,60014,5.56,71994.3,-9.31,-11.37,-10.93,0,*57
1484262447.03,60015,5.56,72000.0,-9.31,-11.41,-11.07,0,*5B
1484262448.3,60016,5.56,72004.0,-9.33,-11.59,-11.15,0,*50
1484262449.54,60017,5.56,71994.5,-9.35,-11.33,-11.01,0,*5E
1484262450.79,60018,5.56,71978.0,-9.33,-11.41,-11.01,0,*52
1484262452.05,60019,5.56,71960.8,-9.31,-11.51,-11.07,0,*56
1484262453.32,60020,5.56,71958.8,-9.33,-11.55,-11.11,0,*5D
1484262454.59,60021,5.56,71954.0,-9.33,-11.55,-11.01,0,*5D
1484262455.85,60022,5.56,71956.8,-9.33,-11.55,-11.11,0,*5F
1484262457.12,60023,5.56,71966.8,-9.33,-11.59,-11.19,0,*5A
1484262458.36,60024,5.56,71968.0,-9.35,-11.59,-11.19,0,*5B
1484262459.61,60025,5.56,71976.8,-9.35,-11.59,-11.15,0,*56
1484262460.85,60026,5.56,71992.3,-9.33,-11.45,-11.01,0,*5B
1484262462.1,60027,5.56,71980.8,-9.33,-11.45,-11.11,0,*5B
1484262463.34,60028,5.56,71972.8,-9.35,-11.55,-11.15,0,*57
1484262464.58,60029,5.56,71984.8,-9.35,-11.55,-11.15,0,*56
1484262465.81,60030,5.56,71982.3,-9.35,-11.45,-11.01,0,*5A
1484262467.05,60031,5.56,72000.3,-9.33,-11.41,-11.01,0,*59
1484262468.27,60032,5.56,72014.0,-9.35,-11.41,-11.01,0,*5C
1484262469.5,60033,5.56,72016.8,-9.35,-11.41,-11.01,0,*5D
1484262470.77,60034,5.56,72000.3,-9.37,-11.45,-11.07,0,*5A
1484262472.04,60035,5.56,72008.0,-9.37,-11.37,-11.15,0,*5D
1484262473.34,60036,5.56,72020.0,-9.37,-11.33,-11.07,0,*59
1484262474.58,60037,5.56,72032.3,-9.35,-11.33,-11.01,0,*5C
1484262475.82,60038,5.56,72030.0,-9.35,-11.33,-11.01,0,*53
1484262477.07,60039,5.56,72028.3,-9.35,-11.29,-10.97,0,*57
1484262478.32,60040,5.56,72026.0,-9.35,-11.33,-11.01,0,*5C
1484262479.56,60041,5.56,72030.5,-9.35,-11.33,-11.01,0,*5D
1484262480.78,60042,5.56,72026.5,-9.35,-11.19,-10.97,0,*58
1484262482.03,60043,5.56,72028.3,-9.35,-11.29,-11.01,0,*54
1484262483.27,60044,5.56,72028.0,-9.35,-11.29,-11.01,0,*53
1484262484.57,60045,5.56,72028.3,-9.37,-11.33,-11.07,0,*5D
1484262485.86,60046,5.56,72020.5,-9.37,-11.37,-11.07,0,*5A
1484262487.13,60047,5.56,72026.5,-9.37,-11.51,-11.15,0,*58
1484262488.39,60048,5.56,72036.5,-9.37,-11.51,-11.15,0,*57
1484262489.66,60049,5.56,72044.8,-9.37,-11.37,-11.15,0,*56
1484262490.94,60050,5.56,72048.3,-9.37,-11.45,-11.07,0,*58
1484262492.21,60051,5.56,72042.8,-9.37,-11.37,-11.01,0,*5A
1484262493.46,60052,5.56,72032.3,-9.35,-11.29,-10.97,0,*5A
1484262494.71,60053,5.56,72042.0,-9.35,-11.33,-10.97,0,*50
1484262495.97,60054,5.56,72040.0,-9.37,-11.33,-11.01,0,*5B
1484262497.22,60055,5.56,72032.0,-9.35,-11.33,-10.97,0,*56
1484262498.47,60056,5.56,72022.5,-9.37,-11.23,-11.01,0,*58
1484262499.68,60057,5.56,72028.0,-9.35,-11.19,-10.89,0,*53
1484262500.9,60058,5.56,72018.5,-9.35,-11.15,-10.89,0,*50
1484262502.16,60059,5.56,72000.3,-9.39,-11.07,-10.79,0,*51
1484262503.44,60060,5.56,72008.0,-9.37,-10.93,-10.63,0,*52
1484262504.66,60061,5.56,71992.3,-9.35,-10.89,-10.49,0,*52
1484262505.87,60062,5.56,72004.5,-9.35,-10.85,-10.57,0,*52
1484262507.09,60063,5.56,72004.3,-9.35,-10.89,-10.57,0,*5F